Погода в Нижнеангарске

Погода в Нижнеангарске : погода сейчас, прогноз погоды и архив. Всё, что Вы хотите узнать о погоде в Нижнеангарске!

Поиск расширенной информации на нашем сайте:

Другие новости

Новости СМИ2

Главная страница сайта

Новости сайта

03.07.2017

Напоминаем, что на нашем специализированном сайте Метеоцентр.Азия вы можете получить высокодетализированные автоматические прогнозы погоды по пунктам России, СНГ и мира в авиационном формате (включающие направление и скорость ветра, видимость, явления погоды, количество и форму облачности, нижнюю и верхнюю границу облачности).


Погода в Нижнеангарске - сегодня

Время (UTC), дата Ветер
(°,м/с) 
Видим.   Явления Облачность Т
(°С)
Тd
(°С)
f(%) Тe
(°С)
Pmin
(гПа)
dP
(гПа)
Po
(мм)
O2
(г/м3)
Тmin Tmax R s Состояние
почвы
09 15.10.18 350 (С) 20000 м    8/0 верхняя 
[Ci fib]
+7.5 -7.1 35 +8  1023.2  -0.6  724  285           
15 15.10.18 310 (СЗ) н/о    ясно 
+3.6 -7.7 43 +4  1025.5  0.5  725  289           
18 15.10.18 290 (З) н/о    ясно 
+0.6 -5.7 63 +1  1026.6  0.5  726  292           
21 15.10.18 350 (С) н/о    ясно 
+0.3 -7.9 54 +1  1027.2  0.4  726  293           
00 16.10.18 тихо ()   20000 м    4/0 верхняя 
[Ci fib]
+1.2 -7.1 54 +1  1027.7  0.7  727  292  -0.6         
03 16.10.18 080 (В) 20000 м    6/0 верхняя 
[Ci fib]
+5.5 -4.7 48 +6  1027.2  0.4  727  288           
06 16.10.18 100 (В) 20000 м    8/0 верхняя 
[Ci fib]
+7.1 -4.1 45 +8  1026.1  -0.7  726  286           
09 16.10.18 тихо ()   20000 м    4/0 верхняя 
[Ci fib]
+4.6 -2.4 60 +5  1026.3  -0.3  726  288           
15 16.10.18 340 (С) н/о    ясно 
+0.9 -6.9 56 +2  1026.7  -0.3  726  292           
18 16.10.18 тихо ()   н/о    ясно 
-0.9 -4.3 78 -1  1025.9  -1.1  725  294           
21 16.10.18 330 (СЗ) н/о    3/0 верхняя 
[Ci fib]
-0.1 -5.2 68 +1  1025  -0.7  725  293           
00 17.10.18 тихо ()   20000 м    6/0 средняя, верхняя 
[Ac lent|Ci fib]
-0.7 -4.6 75 -1  1024.8  -0.3  724  293  -1.8         
03 17.10.18 080 (В) 20000 м    3/0 верхняя 
[Ci fib]
+5.9 -3.6 50 +7  1022.6  -0.7  724  286           
06 17.10.18 190 (Ю) 20000 м    9/0 верхняя 
[Ci fib]
+7.4 -2.1 51 +8  1020.7  -1.5  723  284           
09 17.10.18 210 (ЮЗ) 20000 м    10/0 средняя, верхняя 
[Ac trans|Ci fib]
+3.7 +0.8 81 +5  1021.3  -0.2  722  287           
15 17.10.18 030 (СВ) н/о    6/0 средняя, верхняя 
[Ac trans|Ci fib]
+1.5 -1.7 79 +2  1023  0.4  723  290           
18 17.10.18 260 (З) н/о    6/0 средняя, верхняя 
[Ac trans|Ci fib]
+1.6 -3 71 +2  1022.4  -0.6  723  290           
21 17.10.18 020 (С) н/о    8/0 средняя, верхняя 
[Ac trans|Ci fib]
-0.1 -1.9 88 +1  1023.1  0.3  723  292           
00 18.10.18 200 (Ю) 20000 м    10/0 средняя, верхняя 
[Ac trans|Ci sp]
+0.8 -2.3 80 +1  1023.1  0.3  723  291  -0.4         
03 18.10.18 090 (В) 20000 м    10/0 верхняя 
[Ci fib]
+4.1 +1.3 82 +5  1023  0.6  724  287           
06 18.10.18 110 (В) 20000 м    6/0 верхняя 
[Ci fib]
+7.6 -1.2 54 +9  1021.1  -1.2  723  283           
09 18.10.18 тихо ()   20000 м    8/0 верхняя 
[Ci fib]
+5.5 -2.5 56 +6  1020.6  -0.9  722  285           
15 18.10.18 330 (СЗ) н/о    3/0 верхняя 
[Ci fib]
+1.5 -2.1 77 +2  1020.6  -0.6  722  289           
18 18.10.18 тихо ()   н/о    ясно 
+0.5 -2.4 81 +1  1020.2  -0.6  721  290           
21 18.10.18 020 (С) н/о    ясно 
-0.7 -2.2 90 1020  -0.4  721  291           
Время (UTC), дата Ветер
(°,м/с) 
Видим.   Явления Облачность Т
(°С)
Тd
(°С)
f(%) Тe
(°С)
Pmin
(гПа)
dP
(гПа)
Po
(мм)
O2
(г/м3)
Тmin Tmax R s Состояние
почвы

Для получения пояснительной информации подведите курсор к названию столбца.

ПОГОДА в Нижнеангарске - архив

Всё, что Вы хотите узнать о погоде в Нижнеангарске - удобно и подробно!

Выберите нужную дату (начиная с 1 января 2015* года) и нажмите кнопку "Найти".
Будут отображены архивные сводки погоды по пункту Нижнеангарск, начиная с указанной даты.


Отображать данные в формате CSV (для использования в таблицах Excel)


Внимание! Наш архив погоды предназначен исключительно для личного некоммерческого использования в познавательных целях. Если Вам необходимы официальные справки о состоянии погоды (для производственных, юридических, коммерческих и т.п. целей), обращайтесь в органы Росгидромета.

*Примечание: данная дата относится к архиву по метеостанциям СССР (Россия, СНГ, Балтия).
Архив по метеостанциям Зарубежной Европы и Азии (кроме Китая) хранится 10 дней, по другим регионам земного шара (Китай, Африка, Америка, Австралия, Океания) - 1 день.

Нижнеангарск - район местоположения метеостанции


Название, широта, долгота, высота метеостанции:
Нижнеангарск 55.8°ш. 109.6°д. 487 м над ур. моря [Российская Федерация]

Дополнительная информация

В oтличие oт бoльшинства пoгoдных сайтoв мы публикуем пoдрoбную метеoинфoрмацию в детальнoм прoфессиoнальнoм фoрмате.

Характеристики температуры и влажнoсти вoздуха измеряются на высoте 2 м в тени вдали oт зданий и деревьев.
Скoрoсть ветра измеряется на высoте 10 м (на урoвне рoста челoвека скoрoсть ветра ниже в 1.5-2 раза). Если метеoстанция нахoдится в гoрoде или в лесу, тo скoрoсть ветра занижена на 2-4 м/с пo сравнению с oткрытым местoм. Скoрoсть ветра над акватoриями крупных рек и oзёр, а также на вершинах хoлмoв на 2-5 м/с выше, чем в oбычных услoвиях.
Атмoсфернoе давление в разных тoчках местнoсти мoжет значительнo oтличаться oт давления на метеoстанции, в зависимoсти oт услoвий рельефа (при пoдъёме на 10 м давление пoнижается примернo на 1 мм рт.ст.).